Regional Weather Roundup
Issued by NWS

Home | Current Version | Previous Version | Text Only | Print | Product List | Glossary On
Versions: 1 2 3 4 5 6 7 8 9 10 11 12 13 14 15 16 17 18 19 20 21 22 23 24 25 26 27 28 29 30 31 32 33 34 35 36 37 38 39 40 41 42 43 44 45 46 47 48 49 50
000
ASUS45 KCYS 261710
RWRWY

WYOMING REGIONAL WEATHER ROUNDUP
NATIONAL WEATHER SERVICE CHEYENNE WY
1000 AM MST FRI DEC 26 2014

NOTE:  "FAIR" INDICATES FEW OR NO CLOUDS BELOW 12,000 FEET
WITH NO SIGNIFICANT WEATHER AND/OR OBSTRUCTIONS TO VISIBILITY.

WYZ001-261800-
YELLOWSTONE NATIONAL PARK

CITY           SKY/WX    TMP DP  RH WIND       PRES   REMARKS
LK YELLOWSTONE   N/A      0  -3  87 CALM      29.92R
W YELLOWSTONE  NOT AVBL

$$
WYZ002>013-054>058-071-098>099-261800-
NORTHERN WYOMING

CITY           SKY/WX    TMP DP  RH WIND       PRES   REMARKS
JACKSON        SUNNY      7   3  85 N12       29.93R WCI  -9
CODY           CLOUDY    18  12  79 CALM      30.00R
GREYBULL       PTSUNNY   12  10  92 E5        30.08R WCI   4
WORLAND        FLURRIES  13  10  88 CALM      30.05R
SHERIDAN       FAIR      10   4  76 CALM      30.05R
BUFFALO        FAIR      15  11  83 SE6       30.01R WCI   6
GILLETTE       CLOUDY    18  12  77 CALM      30.03S
HULETT           N/A    N/A N/A N/A MISG        N/A
NEWCASTLE      CLOUDY    19  14  79 CALM      30.04R

$$
WYZ014>020-022>026-101>103-261800-
CENTRAL WYOMING

CITY           SKY/WX    TMP DP  RH WIND       PRES   REMARKS
BIG PINEY      LGT SNOW   7   7 100 CALM      29.89R FOG
PINEDALE       FLURRIES   5   3  92 CALM      29.89R
DUBOIS         NOT AVBL
LANDER         LGT SNOW  15  12  88 NW5       29.98R FOG     WCI   8
RIVERTON       CLOUDY    17  12  80 CALM      29.99R
CASPER         LGT SNOW  16  10  77 N6        29.99R WCI   7
DOUGLAS        CLOUDY    12   9  87 N5        30.02R WCI   4

$$
WYZ021-027>030-104>119-261800-
SOUTHERN WYOMING

CITY           SKY/WX    TMP DP  RH WIND       PRES   REMARKS
EVANSTON       CLOUDY    17   9  70 NE3       29.87R
FORT BRIDGER   CLOUDY    15  13  92 CALM      29.90R FOG
ROCK SPRINGS   CLOUDY    15   8  73 N12G20    29.88R WCI   2
DIXON          LGT SNOW  18  14  82 SW3       29.83R VSB 3/4
RAWLINS        CLOUDY    11   5  77 NE12      29.86S HAZE    WCI  -3
SARATOGA       SNOW      12   9  85 CALM      29.83R VSB 1/4
LARAMIE        LGT SNOW   8   5  87 W3        29.84S FOG
CHEYENNE       LGT SNOW  13   7  77 NE5       29.92R WCI   5
TORRINGTON     LGT SNOW  18  14  84 W3        30.04R FOG
PINE BLUFFS    LGT SNOW  16  12  86 N7        29.99R WCI   6

$$


USA.gov is the U.S. government's official web portal to all federal, state and local government web resources and services.